Location: Medlow Airstrip Trail, Medlow Bath NSW 2780, Australia
(33.6682°S, 150.3233°E)
Time: 22:57:35
(UTC+10:00)

ISS - Visible Passes

Search period start: 03 August 2020 00:00
Search period end: 13 August 2020 00:00
Orbit: 419 x 420 km, 51.6° (Epoch: 04 August)

Date Brightness Start Highest point End Pass type
(mag) Time Alt. Az. Time Alt. Az. Time Alt. Az.
07 Aug -1.3 06:00:25 10° S 06:02:44 17° SSE 06:05:03 10° ESE visible
08 Aug -0.9 05:13:41 10° S 05:14:55 11° SSE 05:16:09 10° SE visible
09 Aug -2.7 06:01:17 10° SW 06:04:34 43° SE 06:07:49 10° ENE visible
10 Aug -1.8 05:15:14 18° S 05:16:52 25° SE 05:19:46 10° E visible
11 Aug -0.9 04:29:50 16° SE 04:29:50 16° SE 04:31:23 10° ESE visible
11 Aug -3.4 06:02:49 10° WSW 06:06:05 50° NW 06:09:22 10° NNE visible
12 Aug -3.8 05:17:31 43° SW 05:18:30 82° SE 05:21:53 10° NE visible
